Regional Weather Roundup
Issued by NWS

Home | Current Version | Previous Version | Text Only | Print | Product List | Glossary On
Versions: 1 2 3 4 5 6 7 8 9 10 11 12 13 14 15 16 17 18 19 20 21 22 23 24 25 26 27 28 29 30 31 32 33 34 35 36 37 38 39 40 41 42 43 44 45 46 47 48 49 50
601
ASUS45 KPSR 190810
RWRAZ

ARIZONA HOURLY REGIONAL WEATHER ROUNDUP
NATIONAL WEATHER SERVICE PHOENIX AZ
100 AM MST TUE NOV 19 2019

NOTE: FAIR INDICATES FEW OR NO CLOUDS BELOW 12,000 FEET WITH NO
SIGNIFICANT WEATHER AND/OR OBSTRUCTIONS TO VISIBILITY.

AZZ001>003-036-190900-
NORTHWEST ARIZONA

CITY           SKY/WX    TMP DP  RH WIND       PRES   REMARKS
BULLHEAD CITY  PTCLDY    61  34  36 S5        29.85
KINGMAN        PTCLDY    46  11  24 S3        29.95F
$$

AZZ004>008-015-016-018-190900-
NORTH CENTRAL ARIZONA

CITY           SKY/WX    TMP DP  RH WIND       PRES   REMARKS
GRAND CANYON   CLEAR     25  10  53 NE3       30.12F
WILLIAMS       PTCLDY    36  14  41 S8        30.12  WCI  29
PRESCOTT       PTCLDY    42  17  36 S7        30.05F
FLAGSTAFF      PTCLDY    30  17  58 SW3       30.13F
PAYSON         PTCLDY    48  19  32 CALM      30.08
PAGE           CLEAR     45  19  35 CALM      30.00F
$$

AZZ009>014-017-190900-
NORTHEAST ARIZONA

CITY           SKY/WX    TMP DP  RH WIND       PRES   REMARKS
WINSLOW        PTCLDY    38  23  55 SE7       30.05F WCI  33
SAINT JOHNS    PTCLDY    39  22  50 S5        30.09F
WINDOW ROCK    CLEAR     26  13  57 CALM      30.13F
SHOW LOW       PTCLDY    43  19  39 S7        30.13F
$$

AZZ540-542>544-546-548-190900-
GREATER PHOENIX AREA

CITY           SKY/WX    TMP DP  RH WIND       PRES   REMARKS
PHOENIX        MOCLDY    63  34  33 E8        29.87S
BUCKEYE          N/A    N/A N/A N/A MISG        N/A
LUKE AFB       PTCLDY    57  32  38 N6        29.87S
DEER VALLEY    PTCLDY    60  23  24 CALM      29.90S
SCOTTSDALE     PTCLDY    60  30  32 CALM      29.90F
MESA-FALCON    PTCLDY    60  30  32 CALM      29.90S
MESA-GATEWAY   PTCLDY    56  19  23 SE8       29.92R
$$

AZZ539-553-190900-
SOUTHWEST MARICOPA COUNTY AND PINAL COUNTY

CITY           SKY/WX    TMP DP  RH WIND       PRES   REMARKS
CASA GRANDE    PTCLDY    55  25  31 CALM      29.92S
GILA BEND      FAIR      63  22  21 CALM      29.86S
$$

AZZ503-504-507>509-190900-
SOUTHEAST ARIZONA

CITY           SKY/WX    TMP DP  RH WIND       PRES   REMARKS
TUCSON         CLEAR     57  28  33 SE7       29.99S
DAVIS-MONTHAN  CLEAR     57  27  31 SE6       29.97
NOGALES        CLEAR     51  37  58 E5        30.03F
SIERRA VISTA   CLEAR     55  29  35 S8        30.08
DOUGLAS        CLEAR     45  28  51 E3        30.05F
SAFFORD        PTCLDY    47  18  31 E6        29.98S
$$

AZZ532-190900-
SOUTHWEST ARIZONA

CITY           SKY/WX    TMP DP  RH WIND       PRES   REMARKS
YUMA           PTCLDY    67  29  24 SE3       29.82F
$$

CAZ041-043-047-048-061-525>527-560>570-190900-
SOUTHERN CALIFORNIA

CITY           SKY/WX    TMP DP  RH WIND       PRES   REMARKS
DOWNTOWN L.A.  PTCLDY    67  46  47 CALM      29.83R
L.A. AIRPORT   PTCLDY    67  44  43 E7        29.83S
SAN DIEGO      PTCLDY    63  52  67 NW5       29.81F
BURBANK        CLEAR     64  35  34 E6        29.84R
ONTARIO        MOCLDY    66  30  26 N5        29.85F
RIVERSIDE      PTCLDY    65  31  28 S3        29.84F
PALM SPRINGS   CLEAR     64  24  21 N8        29.86F
EL CENTRO NAS  PTCLDY    62  28  27 W6        29.84S
IMPERIAL       PTCLDY    61  41  47 W5        29.81S
BLYTHE         MOCLDY    63  23  21 NW3       29.84F
NEEDLES        MOCLDY    61  22  22 N3        29.85F
$$

NVZ020-UTZ003-190900-
SOUTHERN NEVADA-UTAH

CITY           SKY/WX    TMP DP  RH WIND       PRES   REMARKS
LAS VEGAS      MOCLDY    57  28  33 W5        29.85F
SALT LAKE CITY PTCLDY    36  31  82 S3        29.88F
$$

NMZ009-TXZ055-190900-
NEW MEXICO-WEST TEXAS

CITY           SKY/WX    TMP DP  RH WIND       PRES   REMARKS
ALBUQUERQUE    CLEAR     39  23  52 SE10      30.07R WCI  32
EL PASO        MOCLDY    50  28  42 CALM      30.01F
$$


........................KEY........................
SKY/WX - SKY CONDITION/WEATHER
TMP    - TEMPERATURE IN FAHRENHEIT
DP     - DEW POINT IN FAHRENHEIT
RH     - RELATIVE HUMIDITY IN PERCENT
WIND   - DIRECTION AND SPEED IN MILES PER HOUR (MPH)
VRB    - VARIABLE WIND DIRECTION
PRES   - MEAN SEA LEVEL PRESSURE IN INCHES OF MERCURY
         F - FALLING PRESSURE   R - RISING PRESSURE
         S - STEADY PRESSURE
VSB    - VISIBILITY IN MILES
HX     - HEAT INDEX IN FAHRENHEIT
WCI    - WIND CHILL INDEX IN FAHRENHEIT
TC     - TEMPERATURE IN CELSIUS WHICH IS ALSO KNOWN AS
         TEMPERATURE IN CENTIGRADE
AFB    - AIR FORCE BASE
         LUKE AFB IS LUKE AIR FORCE BASE
         DAVIS-MONTHAN IS DAVIS-MONTHAN AIR FORCE BASE
NAS    - NAVAL AIR STATION
         EL CENTRO NAS IS EL CENTRO NAVAL AIR STATION
N/A    - NOT AVAILABLE





USA.gov is the U.S. government's official web portal to all federal, state and local government web resources and services.